[[{"header":{"parameterUnit":"m.s-1","parameterCategory":1,"la1":30.2991,"la2":30.254,"lo1":-89.0895,"lo2":-89.0444,"dy":0.0017,"dx":0.0017,"nx":28,"ny":28,"refTime":"2024-05-12T09:00:00:Z","depth":0,"parameterNumber":2,"parameterNumberName":"U-component_of_WINDS"},"data":[0,0,0,0,0,0,0,0,0,0,0,0,0,0,0,0,0,0,0,0,0,0,0,0,0,0,0,0,0,0,0,0,0,0,0,0,0,0,0,0,0,0,0,0,0,0,0,0,0,0,0,0,0,0,0,0,0,0,-5.6986,-5.6987,0,-5.7016,-5.7016,-5.7016,-5.6937,-5.6935,-5.6932,-5.693,-5.6958,-5.696,-5.6963,0,0,0,0,0,0,0,0,0,0,0,0,0,-5.6859,-5.6862,-5.6986,-5.6987,-5.6987,-5.7016,-5.7016,-5.7017,-5.6938,-5.6935,-5.6932,-5.6929,-5.6957,-5.696,-5.6964,0,0,0,0,0,0,0,0,0,0,0,0,0,-5.6904,-5.6863,-5.6986,-5.6951,-5.6948,-5.7016,-5.7016,-5.7017,-5.6938,-5.6935,-5.6931,-5.6927,-5.6955,-5.696,-5.6964,-5.7066,0,0,-5.6978,-5.698,0,0,0,0,0,0,0,0,-5.6901,-5.6909,-5.6956,-5.6954,-5.6951,-5.6969,-5.6981,-5.7033,-5.6939,-5.6942,-5.693,-5.6926,-5.6964,-5.6968,-5.6981,-5.7067,-5.7068,-5.6978,-5.6981,-5.6983,-5.6984,0,0,0,0,0,0,0,-5.6898,-5.6907,-5.6998,-5.6957,-5.6954,-5.6933,-5.6935,-5.6991,-5.6973,-5.6942,-5.6936,-5.6941,-5.6962,-5.6977,-5.6981,-5.7069,-5.6978,-5.6982,-5.6985,-5.6987,-5.7238,-5.7242,0,0,0,0,0,0,-5.69,-5.6905,-5.6997,-5.6999,-5.6917,-5.6938,-5.6941,-5.6967,-5.6973,-5.697,-5.6944,-5.6937,-5.6971,-5.6976,-5.6982,-5.7099,-5.6983,-5.6987,-5.699,-5.7234,-5.7239,-5.7243,0,0,0,0,0,0,-5.6898,-5.6909,-5.6996,-5.695,-5.696,-5.6945,-5.6974,-5.6969,-5.6984,-5.6974,-5.697,-5.6962,-5.6968,-5.6976,-5.7045,-5.7099,-5.6989,-5.6994,-5.7229,-5.7235,-5.7241,-5.7336,0,0,0,0,0,0,-5.6894,-5.6909,-5.6948,-5.6952,-5.6963,-5.706,-5.6978,-5.6973,-5.6993,-5.6984,-5.6991,-5.6988,-5.6966,-5.7039,-5.705,-5.7103,-5.6997,-5.7224,-5.7232,-5.7239,-5.7328,-5.7344,-5.7359,0,0,0,0,0,-5.689,-5.6973,-5.695,-5.6962,-5.7011,-5.7063,-5.7069,-5.7042,-5.6998,-5.7036,-5.7029,-5.6988,-5.7093,-5.7047,-5.7058,-5.7114,-5.7221,-5.723,-5.7238,-5.7321,-5.7341,-5.7358,0,0,0,0,0,0,-5.6975,-5.6973,-5.6947,-5.7034,-5.705,-5.7049,-5.7097,-5.7065,-5.7092,-5.7083,-5.7048,-5.705,-5.7126,-5.7127,-5.7077,-5.7212,-5.7149,-5.716,-5.7208,-5.7227,-5.7242,-5.7238,-5.7001,0,0,0,0,0,-5.7004,-5.7047,-5.7043,-5.712,-5.7129,-5.7112,-5.7134,-5.7112,-5.7126,-5.7131,-5.713,-5.7144,-5.718,-5.7204,-5.7237,-5.7329,-5.7328,-5.7373,-5.7389,-5.7401,-5.741,-5.7457,-5.7477,-5.7272,-5.7272,-5.7272,0,0,-5.7063,-5.7068,-5.7097,-5.7137,-5.7146,-5.719,-5.7118,-5.7168,-5.7199,-5.7139,-5.7204,-5.7204,-5.7217,-5.7299,-5.7334,-5.7302,-5.7467,-5.7413,-5.7423,-5.7425,-5.7469,-5.7488,-5.7505,-5.7278,-5.7277,-5.7276,0,0,-5.7194,-5.7203,-5.7267,-5.7278,-5.7293,-5.7282,-5.7298,-5.7303,-5.73,-5.7366,-5.7321,-5.7358,-5.7421,-5.7432,-5.7446,-5.7582,-5.7544,-5.7594,-5.7672,-5.7719,-5.7735,-5.7749,-5.7795,-5.7812,-5.7604,-5.7604,-5.7604,0,-5.7265,-5.7331,-5.7304,-5.7357,-5.7375,-5.7324,-5.7388,-5.7399,-5.7424,-5.7437,-5.7402,-5.7479,-5.7485,-5.7567,-5.76,-5.7614,-5.7629,-5.7591,-5.7735,-5.7749,-5.7761,-5.7805,-5.7822,-5.761,-5.7609,-5.7609,-5.7608,0,-5.7417,-5.7463,-5.7513,-5.7539,-5.7563,-5.7622,-5.7602,-5.763,-5.7607,-5.7599,-5.7666,-5.7672,-5.7703,-5.7722,-5.77,-5.7801,-5.778,-5.7741,-5.7676,-5.7787,-5.7827,-5.7843,-5.7618,-5.7616,-5.7614,-5.7613,0,0,-5.7599,-5.761,-5.7628,-5.7639,-5.7653,-5.7687,-5.7743,-5.7775,-5.7798,-5.7818,-5.7862,-5.7918,-5.7881,-5.7897,-5.7876,-5.7917,-5.8022,-5.7872,-5.7872,-5.7897,-5.813,-5.8157,-5.8177,-5.7998,-5.8002,-5.8004,-5.8128,0,-5.7725,-5.7821,-5.7799,-5.7893,-5.7934,-5.7887,-5.7935,-5.7948,-5.7943,-5.7976,-5.797,-5.8009,-5.7959,-5.7968,-5.8007,-5.8001,-5.8067,-5.7992,-5.8037,-5.8039,-5.8031,-5.8198,-5.8227,-5.8344,-5.8144,-5.8146,-5.8148,0,-5.7885,-5.7911,-5.8009,-5.8015,-5.8032,-5.8076,-5.8103,-5.8136,-5.815,-5.8143,-5.8162,-5.8133,-5.8187,-5.8124,-5.8197,-5.8146,-5.8164,-5.8164,-5.8168,-5.8168,-5.8097,-5.82,-5.838,-5.8397,-5.8173,-5.8171,-5.8169,0,-5.8004,-5.8064,-5.813,-5.8141,-5.815,-5.8182,-5.8187,-5.8198,-5.8218,-5.8242,-5.8255,-5.8285,-5.8301,-5.8324,-5.8304,-5.8261,-5.8379,-5.8316,-5.8373,-5.8373,-5.8397,-5.8395,-5.8579,-5.8414,-5.8414,-5.8414,-5.8413,0,-5.8145,-5.8206,-5.8183,-5.8223,-5.829,-5.8265,-5.8331,-5.8331,-5.8341,-5.8379,-5.8342,-5.8378,-5.8351,-5.8385,-5.837,-5.8431,-5.844,-5.8434,-5.8428,-5.8435,-5.8436,-5.8443,-5.8433,-5.8418,-5.8417,-5.8416,-5.8416,0,-5.8288,-5.8275,-5.8343,-5.8347,-5.835,-5.8399,-5.8401,-5.8438,-5.8431,-5.848,-5.849,-5.8478,-5.8517,-5.85,-5.854,-5.853,-5.8608,-5.8593,-5.8603,-5.8598,-5.8655,-5.8648,-5.8848,-5.8872,-5.8695,-5.8697,-5.8698,0,-5.8377,-5.8423,-5.8432,-5.8456,-5.8464,-5.8503,-5.8523,-5.85,-5.8523,-5.8543,-5.8577,-5.8612,-5.8639,-5.8702,-5.8696,-5.8727,-5.8711,-5.8779,-5.8715,-5.872,-5.8708,-5.8704,-5.8707,-5.879,-5.8792,-5.8794,-5.8795,0,-5.8536,-5.8527,-5.8559,-5.859,-5.8616,-5.8638,-5.8657,-5.8678,-5.8656,-5.8684,-5.8723,-5.8744,-5.8785,-5.882,-5.8847,-5.8851,-5.8819,-5.8816,-5.883,-5.8836,-5.8838,-5.8835,-5.8634,-5.8811,-5.8809,-5.8808,-5.8807,-5.8807,-5.8652,-5.869,-5.8703,-5.8739,-5.8751,-5.877,-5.8804,-5.8802,-5.8834,-5.8866,-5.8851,-5.8896,-5.8908,-5.8941,-5.895,-5.8984,-5.8957,-5.8978,-5.8983,-5.8988,-5.8994,-5.8836,-5.8989,-5.8989,-5.8988,-5.8988,-5.8988,0,-5.8807,-5.8813,-5.8847,-5.8875,-5.8903,-5.8873,-5.8892,-5.8918,-5.8958,-5.8972,-5.9,-5.9044,-5.9078,-5.9076,-5.9106,-5.9134,-5.912,-5.9142,-5.9138,-5.9139,-5.9018,-5.9001,-5.9153,-5.9153,-5.9153,-5.9153,-5.9153,-5.9153,-5.889,-5.8952,-5.8945,-5.9013,-5.9018,-5.9062,-5.9075,-5.9092,-5.9103,-5.9154,-5.9183,-5.9181,-5.9189,-5.922,-5.9249,-5.9247,-5.9259,-5.9286,-5.9279,-5.9165,-5.9148,-5.9132,-5.9116,-5.929,-5.929,-5.9397,-5.9398,-5.9399]},{"header":{"parameterUnit":"m.s-1","parameterCategory":1,"la1":30.2991,"la2":30.254,"lo1":-89.0895,"lo2":-89.0444,"dy":0.0017,"dx":0.0017,"nx":28,"ny":28,"refTime":"2024-05-12T09:00:00:Z","depth":0,"parameterNumber":3,"parameterNumberName":"V-component_of_WINDS"},"data":[0,0,0,0,0,0,0,0,0,0,0,0,0,0,0,0,0,0,0,0,0,0,0,0,0,0,0,0,0,0,0,0,0,0,0,0,0,0,0,0,0,0,0,0,0,0,0,0,0,0,0,0,0,0,0,0,0,0,4.8847,4.8847,0,4.888,4.888,4.888,4.8819,4.8817,4.8815,4.8813,4.8843,4.8846,4.8848,0,0,0,0,0,0,0,0,0,0,0,0,0,4.8728,4.873,4.8847,4.8847,4.8847,4.888,4.888,4.888,4.882,4.8817,4.8815,4.8812,4.8842,4.8845,4.8849,0,0,0,0,0,0,0,0,0,0,0,0,0,4.8772,4.8731,4.8847,4.8821,4.8819,4.888,4.888,4.8881,4.882,4.8817,4.8814,4.8811,4.8841,4.8845,4.8849,4.8935,0,0,4.8861,4.8863,0,0,0,0,0,0,0,0,4.8769,4.8776,4.8824,4.8823,4.8821,4.8842,4.8849,4.8899,4.8821,4.882,4.8813,4.881,4.8845,4.8849,4.8861,4.8936,4.8937,4.8862,4.8864,4.8866,4.8867,0,0,0,0,0,0,0,4.8766,4.8774,4.8859,4.8825,4.8823,4.8807,4.881,4.8858,4.8849,4.8819,4.8815,4.882,4.8843,4.8858,4.8862,4.8938,4.8862,4.8865,4.8868,4.8869,4.9084,4.9088,0,0,0,0,0,0,4.8767,4.8772,4.8858,4.886,4.8787,4.8812,4.8815,4.8838,4.8848,4.8847,4.8823,4.8817,4.8852,4.8857,4.8862,4.8963,4.8866,4.887,4.8872,4.9081,4.9085,4.9089,0,0,0,0,0,0,4.8765,4.8775,4.8857,4.8815,4.8825,4.8817,4.8844,4.8841,4.8855,4.8851,4.8848,4.8839,4.885,4.8857,4.8917,4.8963,4.8871,4.8875,4.9077,4.9082,4.9087,4.9164,0,0,0,0,0,0,4.8762,4.8775,4.8808,4.8817,4.8827,4.8913,4.8847,4.8843,4.8862,4.8855,4.8865,4.8864,4.8848,4.8912,4.8921,4.8967,4.8878,4.9073,4.9079,4.9085,4.9158,4.9171,4.9183,0,0,0,0,0,4.8758,4.8827,4.881,4.8821,4.8868,4.8915,4.8921,4.8903,4.8866,4.8899,4.8896,4.8864,4.8957,4.8919,4.8929,4.8976,4.907,4.9078,4.9085,4.9152,4.9169,4.9183,0,0,0,0,0,0,4.8822,4.8828,4.8808,4.8884,4.89,4.8905,4.8945,4.8921,4.8947,4.8939,4.8914,4.8917,4.8982,4.8985,4.8942,4.9059,4.9007,4.9017,4.9055,4.907,4.9083,4.908,4.8882,0,0,0,0,0,4.8846,4.8885,4.8887,4.8953,4.8963,4.8953,4.8973,4.8958,4.8972,4.8978,4.898,4.8995,4.9028,4.9049,4.9079,4.9159,4.9159,4.9196,4.9209,4.9219,4.9227,4.9269,4.9285,4.9113,4.9113,4.9113,0,0,4.8894,4.8902,4.8927,4.8967,4.8977,4.9017,4.8959,4.9003,4.9032,4.8985,4.9042,4.9045,4.9059,4.913,4.9161,4.9134,4.9276,4.9229,4.9237,4.924,4.9278,4.9295,4.9309,4.9118,4.9117,4.9116,0,0,4.9001,4.9012,4.9068,4.908,4.9098,4.9091,4.9105,4.9115,4.9115,4.9173,4.9138,4.9172,4.9229,4.924,4.9254,4.9368,4.9339,4.9379,4.9444,4.9485,4.9499,4.9511,4.955,4.9565,4.9387,4.9388,4.9388,0,4.9058,4.9118,4.9099,4.9147,4.9164,4.9126,4.9182,4.9194,4.922,4.9233,4.9204,4.9275,4.9282,4.9354,4.9382,4.9395,4.9409,4.9376,4.9499,4.951,4.9521,4.9558,4.9574,4.9392,4.9392,4.9391,4.9391,0,4.9186,4.9228,4.9271,4.9299,4.9322,4.9374,4.9362,4.9387,4.9371,4.9367,4.9426,4.9434,4.9465,4.9482,4.9465,4.9552,4.9535,4.9503,4.9449,4.9542,4.9577,4.9591,4.9399,4.9397,4.9396,4.9395,0,0,4.9333,4.9352,4.9368,4.938,4.9397,4.9429,4.9479,4.951,4.9532,4.9552,4.9592,4.9642,4.9613,4.9628,4.9613,4.9649,4.9738,4.9612,4.9612,4.9634,4.9833,4.9856,4.9873,4.972,4.9723,4.9725,4.9832,0,4.9439,4.9526,4.9511,4.9595,4.9633,4.9598,4.9641,4.9656,4.9654,4.9686,4.9683,4.9719,4.9678,4.9687,4.9722,4.972,4.9777,4.9712,4.9755,4.9757,4.9751,4.9891,4.9916,5.0016,4.9845,4.9847,4.9849,0,4.9573,4.96,4.9688,4.97,4.9715,4.9754,4.9782,4.9813,4.983,4.9826,4.9845,4.9823,4.9872,4.982,4.9886,4.9842,4.9859,4.9861,4.9864,4.9866,4.9807,4.9895,5.0048,5.0062,4.987,4.9869,4.9867,0,4.967,4.9728,4.9788,4.9799,4.9815,4.9844,4.9851,4.9865,4.9885,4.9909,4.9922,4.9951,4.9967,4.999,4.9977,4.994,5.0045,4.9992,5.0042,5.0042,5.0063,5.0062,5.0219,5.0078,5.0078,5.0077,5.0077,0,4.9788,4.9843,4.9831,4.9868,4.9928,4.9912,4.9971,4.9975,4.9987,5.0023,4.9995,5.0029,5.001,5.0043,5.0033,5.0088,5.0096,5.0093,5.009,5.0095,5.0095,5.0104,5.0096,5.0081,5.008,5.008,5.0079,0,4.9906,4.99,4.9963,4.9974,4.9978,5.0022,5.003,5.0064,5.0062,5.0107,5.0117,5.0112,5.0149,5.0139,5.0179,5.0172,5.0242,5.0231,5.0237,5.0234,5.0284,5.0279,5.0451,5.0472,5.0319,5.032,5.0321,0,4.9981,5.0022,5.0038,5.0061,5.0072,5.0109,5.013,5.0115,5.0138,5.016,5.0191,5.0226,5.0253,5.0313,5.0313,5.0343,5.0331,5.0389,5.0335,5.0339,5.033,5.0327,5.033,5.0399,5.0401,5.0402,5.0403,0,5.0114,5.011,5.0142,5.0174,5.02,5.0224,5.0244,5.0264,5.0251,5.0278,5.0317,5.0338,5.0379,5.0414,5.0442,5.0448,5.0423,5.0421,5.0434,5.0439,5.044,5.0439,5.0265,5.0416,5.0415,5.0414,5.0413,5.0413,5.0212,5.0247,5.0264,5.0301,5.0316,5.0336,5.0369,5.0371,5.0403,5.0436,5.0426,5.0469,5.0485,5.052,5.0531,5.0564,5.0541,5.056,5.0565,5.0569,5.0575,5.0437,5.0569,5.0568,5.0568,5.0568,5.0567,0,5.0343,5.0353,5.0387,5.0418,5.0447,5.0423,5.0445,5.047,5.051,5.0527,5.0555,5.0599,5.0632,5.0635,5.0667,5.0693,5.0682,5.0701,5.0698,5.07,5.0594,5.0579,5.0709,5.0709,5.0709,5.0709,5.0709,5.0709,5.0414,5.0473,5.0471,5.0536,5.0545,5.0589,5.0603,5.0622,5.0635,5.0686,5.0715,5.0717,5.0728,5.0761,5.079,5.079,5.0802,5.0826,5.0821,5.0722,5.0707,5.0694,5.068,5.0829,5.0829,5.0924,5.0925,5.0926]}]]